User: anonymous   Login
Location: Unspecified
(0.0000°N, 0.0000°E)
Time: 06:08:59
(UTC+00:00)
Language:

SEEDS - Orbit

View from above orbital plane
View from above orbital plane
View from above satellite
View from above satellite

Ground track
Ground track

The orbit data is extracted from the following two-line orbital elements,

1 32791U 08021J   17296.01717925 +.00000607 +00000-0 +67683-4 0  9997
2 32791 097.5546 319.1606 0015006 088.6121 271.6816 14.90356001514105
Epoch (UTC): 23 October 2017 00:24:44
Eccentricity: 0.0015006
inclination: 97.5546°
perigee height: 586 km
apogee height: 607 km
right ascension of ascending node: 319.1606°
argument of perigee: 88.6121°
revolutions per day: 14.90356001
mean anomaly at epoch: 271.6816°
orbit number at epoch: 51410

The dashed part of the orbit path shows where the satellite is in the earth's shadow,  

DLR